Tracking 26894 objects as of 2-Feb-2023
HD Live streaming from Space Station
objects crossing your sky now

ECHOSTAR 7

Track ECHOSTAR 7 now!
ECHOSTAR 7 is classified as:


NORAD ID: 27378
Int'l Code: 2002-006A
Perigee: 35,902.6 km
Apogee: 35,931.3 km
Inclination: 0.8 °
Period: 1,442.4 minutes
Semi major axis: 42287 km
RCS: 17.7827 m2 (large)
Launch date: February 21, 2002
Source: United States (US)
Launch site: AIR FORCE EASTERN TEST RANGE (AFETR)

CONUS, Hawaii, Alaska and Puerto Rico; 32 Ku-band transponders
Your satellite tracking list
Your tracking list is empty




NASA's NSSDC Master Catalog

Two Line Element Set (TLE):
1 27378U 02006A   23032.51576182 -.00000158  00000-0  00000-0 0  9995
2 27378   0.8258  92.2206 0003393 255.7413  62.1400  0.99833853 38235
Source of the keplerian elements: AFSPC